| time (UTC) | temp F | wind direction | speed MPH | gust MPH | rain 1hr in | rain 24hr in | rain mn in | humidity % | barometer mb |
| 20260506161520 | 49 | 5 | 2.0 | 8.0 | 0.00 | 0.01 | 0.00 | 62 | 1021.9 |
| 20260506160019 | 48 | 121 | 0.0 | 8.0 | 0.00 | 0.02 | 0.00 | 65 | 1021.7 |
| 20260506154515 | 48 | 91 | 1.0 | 5.0 | 0.00 | 0.02 | 0.00 | 66 | 1021.7 |
| 20260506153013 | 47 | 95 | 0.0 | 4.0 | 0.00 | 0.02 | 0.00 | 67 | 1021.6 |
| 20260506151511 | 47 | 36 | 1.0 | 5.0 | 0.00 | 0.02 | 0.00 | 68 | 1021.6 |
| 20260506150006 | 46 | 98 | 1.0 | 4.0 | 0.00 | 0.05 | 0.00 | 74 | 1021.5 |
| 20260506144502 | 43 | 9 | 0.0 | 4.0 | 0.00 | 0.05 | 0.00 | 89 | 1021.5 |
| 20260506143108 | 41 | 350 | 0.0 | 4.0 | 0.00 | 0.05 | 0.00 | 96 | 1021.3 |
| 20260506141554 | 38 | 30 | 0.0 | 5.0 | 0.00 | 0.05 | 0.00 | 96 | 1021.2 |
| 20260506140050 | 35 | 289 | 0.0 | 0.0 | 0.00 | 0.05 | 0.00 | 96 | 1021.2 |
| 20260506134548 | 34 | 289 | 0.0 | 0.0 | 0.00 | 0.09 | 0.00 | 95 | 1020.9 |
| 20260506133045 | 33 | 289 | 0.0 | 0.0 | 0.00 | 0.09 | 0.00 | 95 | 1020.7 |
| 20260506131543 | 33 | 289 | 0.0 | 0.0 | 0.00 | 0.09 | 0.00 | 95 | 1020.4 |
| 20260506130042 | 33 | 289 | 0.0 | 0.0 | 0.00 | 0.09 | 0.00 | 95 | 1020.1 |
| 20260506124541 | 33 | 289 | 0.0 | 0.0 | 0.00 | 0.14 | 0.00 | 95 | 1020.0 |
| 20260506123039 | 33 | 289 | 0.0 | 0.0 | 0.00 | 0.14 | 0.00 | 95 | 1019.8 |
| 20260506121537 | 33 | 289 | 0.0 | 0.0 | 0.00 | 0.14 | 0.00 | 95 | 1019.7 |
| 20260506120042 | 33 | 289 | 0.0 | 0.0 | 0.00 | 0.14 | 0.00 | 95 | 1019.6 |
| 20260506114535 | 33 | 289 | 0.0 | 0.0 | 0.00 | 0.16 | 0.00 | 95 | 1019.6 |
| 20260506113035 | 33 | 289 | 0.0 | 0.0 | 0.00 | 0.16 | 0.00 | 95 | 1019.5 |
| 20260506111533 | 33 | 289 | 0.0 | 0.0 | 0.00 | 0.16 | 0.00 | 95 | 1019.4 |
| 20260506110033 | 33 | 289 | 0.0 | 0.0 | 0.00 | 0.16 | 0.00 | 95 | 1019.3 |
| 20260506104531 | 33 | 289 | 0.0 | 0.0 | 0.00 | 0.18 | 0.00 | 95 | 1019.1 |
| 20260506103035 | 33 | 289 | 0.0 | 0.0 | 0.00 | 0.18 | 0.00 | 95 | 1019.1 |
| 20260506101528 | 33 | 289 | 0.0 | 0.0 | 0.00 | 0.18 | 0.00 | 95 | 1019.0 |
| 20260506100029 | 33 | 289 | 0.0 | 0.0 | 0.00 | 0.18 | 0.00 | 95 | 1018.9 |
| 20260506094526 | 32 | 289 | 0.0 | 0.0 | 0.00 | 0.20 | 0.00 | 95 | 1019.0 |
| 20260506093025 | 31 | 289 | 0.0 | 0.0 | 0.00 | 0.20 | 0.00 | 95 | 1018.8 |
| 20260506091524 | 31 | 289 | 0.0 | 0.0 | 0.00 | 0.20 | 0.00 | 95 | 1019.0 |
| 20260506090038 | 31 | 289 | 0.0 | 0.0 | 0.00 | 0.20 | 0.00 | 94 | 1019.0 |
| 20260506084523 | 31 | 289 | 0.0 | 0.0 | 0.00 | 0.20 | 0.00 | 94 | 1018.9 |
| 20260506083019 | 32 | 289 | 0.0 | 0.0 | 0.00 | 0.20 | 0.00 | 94 | 1019.1 |
| 20260506081515 | 33 | 289 | 0.0 | 0.0 | 0.00 | 0.20 | 0.00 | 94 | 1019.0 |
| 20260506073012 | 33 | 289 | 0.0 | 0.0 | 0.00 | 0.20 | 0.00 | 94 | 1019.2 |
| 20260506071509 | 33 | 289 | 0.0 | 0.0 | 0.00 | 0.20 | 0.00 | 94 | 1019.1 |
| 20260506061506 | 35 | 289 | 0.0 | 0.0 | 0.00 | 0.21 | 0.20 | 94 | 1018.8 |
| 20260506044506 | 35 | 234 | 1.0 | 3.0 | 0.00 | 0.21 | 0.20 | 94 | 1018.5 |
| 20260506043106 | 36 | 251 | 0.0 | 4.0 | 0.00 | 0.21 | 0.20 | 94 | 1018.3 |
| 20260506041558 | 36 | 239 | 0.0 | 2.0 | 0.00 | 0.21 | 0.20 | 94 | 1018.2 |
| 20260506040105 | 36 | 239 | 2.0 | 4.0 | 0.00 | 0.21 | 0.20 | 94 | 1017.9 |
| 20260506034604 | 35 | 261 | 1.0 | 4.0 | 0.00 | 0.21 | 0.20 | 93 | 1017.7 |
| 20260506033055 | 35 | 285 | 1.0 | 4.0 | 0.00 | 0.21 | 0.20 | 93 | 1017.5 |
| 20260506031554 | 35 | 198 | 1.0 | 5.0 | 0.00 | 0.21 | 0.20 | 93 | 1017.3 |
| 20260506030055 | 35 | 291 | 2.0 | 3.0 | 0.00 | 0.21 | 0.20 | 93 | 1017.0 |
| 20260506024558 | 35 | 245 | 1.0 | 6.0 | 0.00 | 0.21 | 0.20 | 92 | 1016.8 |
| 20260506023051 | 35 | 259 | 3.0 | 7.0 | 0.00 | 0.21 | 0.20 | 92 | 1016.6 |
| 20260506021600 | 35 | 226 | 2.0 | 6.0 | 0.00 | 0.21 | 0.20 | 92 | 1016.2 |
| 20260506020046 | 36 | 193 | 3.0 | 9.0 | 0.00 | 0.21 | 0.20 | 91 | 1015.6 |
| 20260506014545 | 36 | 233 | 4.0 | 8.0 | 0.00 | 0.21 | 0.20 | 92 | 1015.5 |
| 20260506013054 | 37 | 223 | 3.0 | 8.0 | 0.00 | 0.21 | 0.20 | 91 | 1015.6 |
| 20260506011554 | 37 | 244 | 4.0 | 10.0 | 0.00 | 0.21 | 0.20 | 90 | 1015.3 |
| 20260506010143 | 37 | 233 | 4.0 | 8.0 | 0.00 | 0.21 | 0.20 | 91 | 1015.3 |
| 20260506004542 | 37 | 193 | 4.0 | 9.0 | 0.00 | 0.21 | 0.20 | 90 | 1015.4 |
| 20260506003042 | 38 | 222 | 6.0 | 10.0 | 0.00 | 0.21 | 0.20 | 89 | 1015.0 |
| 20260506001544 | 38 | 224 | 4.0 | 9.0 | 0.00 | 0.21 | 0.20 | 88 | 1014.8 |
| 20260506000045 | 38 | 169 | 4.0 | 11.0 | 0.00 | 0.21 | 0.20 | 89 | 1014.8 |
| 20260505234540 | 39 | 236 | 5.0 | 12.0 | 0.00 | 0.21 | 0.20 | 89 | 1014.6 |
| 20260505233039 | 39 | 213 | 4.0 | 11.0 | 0.00 | 0.21 | 0.20 | 89 | 1014.5 |
| 20260505231548 | 40 | 227 | 5.0 | 11.0 | 0.00 | 0.21 | 0.20 | 90 | 1014.7 |
| 20260505230039 | 39 | 202 | 5.0 | 9.0 | 0.00 | 0.21 | 0.20 | 92 | 1014.8 |
| 20260505224538 | 39 | 223 | 4.0 | 11.0 | 0.00 | 0.21 | 0.20 | 92 | 1014.7 |
| 20260505223037 | 39 | 211 | 5.0 | 12.0 | 0.00 | 0.21 | 0.20 | 92 | 1014.9 |
| 20260505221537 | 41 | 211 | 4.0 | 12.0 | 0.00 | 0.21 | 0.20 | 95 | 1015.0 |
| 20260505220033 | 38 | 216 | 4.0 | 12.0 | 0.00 | 0.21 | 0.20 | 95 | 1015.2 |
| 20260505214546 | 38 | 218 | 4.0 | 10.0 | 0.00 | 0.21 | 0.20 | 95 | 1015.2 |
| 20260505213030 | 38 | 182 | 3.0 | 11.0 | 0.00 | 0.21 | 0.20 | 95 | 1015.2 |
| 20260505211533 | 38 | 225 | 4.0 | 9.0 | 0.00 | 0.21 | 0.20 | 95 | 1015.3 |
| 20260505210028 | 38 | 250 | 5.0 | 9.0 | 0.00 | 0.21 | 0.20 | 95 | 1015.3 |
| 20260505204532 | 37 | 209 | 4.0 | 12.0 | 0.00 | 0.21 | 0.20 | 95 | 1015.1 |
| 20260505203027 | 37 | 207 | 4.0 | 10.0 | 0.00 | 0.21 | 0.20 | 95 | 1015.1 |
| 20260505201527 | 37 | 234 | 5.0 | 10.0 | 0.00 | 0.21 | 0.20 | 95 | 1015.1 |
| 20260505200033 | 37 | 178 | 5.0 | 10.0 | 0.00 | 0.21 | 0.20 | 95 | 1015.2 |
| 20260505194525 | 37 | 237 | 4.0 | 10.0 | 0.00 | 0.21 | 0.20 | 95 | 1015.4 |
| 20260505193025 | 36 | 225 | 4.0 | 9.0 | 0.00 | 0.21 | 0.20 | 95 | 1015.5 |
| 20260505191523 | 37 | 215 | 4.0 | 11.0 | 0.00 | 0.21 | 0.20 | 95 | 1015.6 |
| 20260505190027 | 38 | 231 | 2.0 | 6.0 | 0.00 | 0.21 | 0.20 | 95 | 1015.5 |
| 20260505184522 | 38 | 218 | 4.0 | 9.0 | 0.01 | 0.21 | 0.20 | 95 | 1015.4 |
| 20260505183027 | 38 | 195 | 3.0 | 10.0 | 0.01 | 0.21 | 0.20 | 95 | 1015.4 |
| 20260505181520 | 38 | 211 | 4.0 | 11.0 | 0.01 | 0.21 | 0.20 | 95 | 1015.1 |
| 20260505180016 | 38 | 219 | 5.0 | 12.0 | 0.01 | 0.21 | 0.20 | 95 | 1014.9 |
| 20260505174514 | 38 | 197 | 5.0 | 12.0 | 0.00 | 0.20 | 0.19 | 95 | 1014.7 |
| 20260505173014 | 39 | 232 | 5.0 | 11.0 | 0.00 | 0.20 | 0.19 | 95 | 1014.6 |
| 20260505171510 | 38 | 229 | 4.0 | 14.0 | 0.00 | 0.20 | 0.19 | 95 | 1014.3 |
| 20260505170013 | 37 | 233 | 5.0 | 10.0 | 0.00 | 0.20 | 0.19 | 95 | 1014.2 |
| 20260505164508 | 37 | 207 | 4.0 | 9.0 | 0.00 | 0.20 | 0.19 | 95 | 1014.0 |
| 20260505163012 | 37 | 205 | 5.0 | 12.0 | 0.00 | 0.20 | 0.19 | 95 | 1013.9 |